DECAYED

STARLINK-2749, 48429 (Decayed)

Orbit data source: Space-Track

STARLINK-2749, 48429 was a payload satellite owned by SpaceX/Seattle (US) in LEO that was launched on Sun, 09 May 2021 UTC via an FALCON 9 launch vehicle from the Air Force Eastern Test Range (AFETR). Payload-class satellites include a variety of spacecraft equipped with specific instruments for various scientific and technological missions. These include communications satellites like Starlink; space stations such as the ISS; scientific satellites like the Hubble; Earth observation satellites from companies like Planet Labs, Umbra, and HawkEye 360; GPS; miniature CubeSats for education and research; and military/defense satellites.

Not visible in the next 10 days
Identifier
48429, 2021-040B
Orbit
Decayed
Country
Flag of USUS
Related business
Manufacturer
SpaceX/Seattle
Mission
Decayed Commercial Communications
Bus & Motor
STARLINK, Unknown motor
Mass
260 kg wet, ~248 kg dry
Launch date (UTC)
2021-05-09 (5 years ago)
Launch vehicle
FALCON 9
Launch site
Air Force Eastern Test Range (AFETR)
Object type
Payload
Rocket body
Debris
Shape & HBR
Box + 1 Pan, 10.1 m
Radar Cross Section
13.562 m², Large (>1 m²)

Expand to show TLE details & history
Last TLE update: 1 year ago

TLE from 1 year ago
0 STARLINK-2749
1 48429U 21040B   25010.09351953  .07607809  12128-4  13947-2 0  9998
2 48429  53.0303 237.4552 0002450 266.2420 220.3019 16.31591943204694
Epoch: 2025-01-10T02:14Z
TLE epoch observation values (Epoch: 2025-01-10T02:14:40.087Z)
Latitude
40.0783°
Longitude
-125.10482°
Altitude
193.064 km
Speed
7.795 km/s
True Right ascension
01h 13m 41s
True Declination
39° 53' 40"
Sunlit
Object was in daylight at epoch
Visualization orbit readout
Latitude
Unknown
Longitude
Unknown
Altitude
Unknown
Speed
Unknown
Apparent Right ascension
Unknown
Apparent Declination
Unknown
Sunlit
N/A
Visualization observer readout
Local Sidereal Time
21:25:22
Azimuth
Unknown
Elevation
Unknown
Doppler factor
Unknown
Orbital elements
Apogee altitude
190.163 km
Perigee altitude
186.945 km
Semi-major axis
6,566.691 km
Eccentricity
0.00025
Inclination
53.0303°
RAAN
237.4552°
Arg. of periapsis
266.242°
True anomaly
220.28374°
Mean anomaly
220.3019°
Eccentric anomaly
220.29282°
Mean motion
4.07871 °/min
Orbital period
88.26 mins
BSTAR
0.0013947
Loading maneuver chart data...
Computing Atmospheric mass density...
Loading historical data...
Loading historical data...
Loading historical data...
Loading historical data...
Loading historical data...
Loading historical data...
Loading historical data...

Documentation

Showing up to 5 results
|